Time,TemperatureF,DewpointF,PressureIn,WindDirection,WindDirectionDegrees,WindSpeedMPH,WindSpeedGustMPH,Humidity,HourlyPrecipIn,Conditions,Clouds,dailyrainin,SoftwareType,DateUTC
2013-04-16 00:02:00,43.0,42.0,30.43,SSE,150,4.0,7.0,95,-99.99,,,-99.99,,2013-04-16 04:02:00,
2013-04-16 00:12:00,43.0,42.0,30.43,SSE,150,4.0,7.0,95,-99.99,,,-99.99,,2013-04-16 04:12:00,
2013-04-16 00:23:00,43.0,42.0,30.43,SSE,160,4.0,7.0,95,-99.99,,,-99.99,,2013-04-16 04:23:00,
2013-04-16 00:32:00,43.0,42.0,30.43,SSE,160,4.0,7.0,95,-99.99,,,-99.99,,2013-04-16 04:32:00,
2013-04-16 00:42:00,43.0,42.0,30.44,SSE,150,4.0,4.0,96,-99.99,,,-99.99,,2013-04-16 04:42:00,
2013-04-16 00:52:00,43.0,42.0,30.44,SE,140,4.0,4.0,96,-99.99,,,-99.99,,2013-04-16 04:52:00,
2013-04-16 01:02:00,43.0,42.0,30.44,SE,130,4.0,4.0,95,-99.99,,,-99.99,,2013-04-16 05:02:00,
2013-04-16 01:11:00,43.0,42.0,30.44,SE,130,4.0,4.0,95,-99.99,,,-99.99,,2013-04-16 05:11:00,
2013-04-16 01:22:00,43.0,42.0,30.43,SE,130,4.0,7.0,96,-99.99,,,-99.99,,2013-04-16 05:22:00,
2013-04-16 01:31:00,43.0,42.0,30.43,SE,130,4.0,7.0,96,-99.99,,,-99.99,,2013-04-16 05:31:00,
2013-04-16 01:42:00,43.0,42.0,30.43,SE,130,7.0,7.0,95,-99.99,,,-99.99,,2013-04-16 05:42:00,
2013-04-16 01:51:00,43.0,42.0,30.42,SE,130,7.0,7.0,96,-99.99,,,-99.99,,2013-04-16 05:51:00,
2013-04-16 02:02:00,43.0,42.0,30.42,SE,140,4.0,7.0,96,-99.99,,,-99.99,,2013-04-16 06:02:00,
2013-04-16 02:11:00,43.0,42.0,30.42,SE,140,4.0,7.0,96,-99.99,,,-99.99,,2013-04-16 06:11:00,
2013-04-16 02:21:00,43.0,42.0,30.42,SE,140,4.0,7.0,95,-99.99,,,-99.99,,2013-04-16 06:21:00,
2013-04-16 02:32:00,43.0,42.0,30.42,SE,140,4.0,7.0,95,-99.99,,,-99.99,,2013-04-16 06:32:00,
2013-04-16 02:41:00,43.0,42.0,30.42,SSE,150,4.0,4.0,95,-99.99,,,-99.99,,2013-04-16 06:41:00,
2013-04-16 02:51:00,43.0,42.0,30.42,SSE,150,4.0,4.0,95,-99.99,,,-99.99,,2013-04-16 06:51:00,
2013-04-16 03:02:00,43.0,42.0,30.41,SE,130,4.0,7.0,96,-99.99,,,-99.99,,2013-04-16 07:02:00,
2013-04-16 03:21:00,43.0,42.0,30.41,ESE,120,4.0,4.0,96,-99.99,,,-99.99,,2013-04-16 07:21:00,
2013-04-16 03:31:00,43.0,42.0,30.41,ESE,120,4.0,4.0,96,-99.99,,,-99.99,,2013-04-16 07:31:00,
2013-04-16 03:41:00,43.0,42.0,30.41,ESE,120,2.0,4.0,95,-99.99,,,-99.99,,2013-04-16 07:41:00,
2013-04-16 03:52:00,43.0,42.0,30.41,East,100,2.0,4.0,95,-99.99,,,-99.99,,2013-04-16 07:52:00,
2013-04-16 04:01:00,43.0,42.0,30.41,East,100,2.0,4.0,95,-99.99,,,-99.99,,2013-04-16 08:01:00,
2013-04-16 04:11:00,43.0,41.0,30.42,East,80,2.0,4.0,95,-99.99,,,-99.99,,2013-04-16 08:11:00,
2013-04-16 04:21:00,43.0,41.0,30.42,East,90,2.0,2.0,95,-99.99,,,-99.99,,2013-04-16 08:21:00,
2013-04-16 04:31:00,43.0,41.0,30.42,East,90,2.0,2.0,95,-99.99,,,-99.99,,2013-04-16 08:31:00,
2013-04-16 04:41:00,43.0,41.0,30.42,East,100,2.0,2.0,93,-99.99,,,-99.99,,2013-04-16 08:41:00,
2013-04-16 04:51:00,43.0,41.0,30.42,ESE,110,2.0,4.0,93,-99.99,,,-99.99,,2013-04-16 08:51:00,
2013-04-16 05:01:00,43.0,41.0,30.42,ESE,110,2.0,4.0,93,-99.99,,,-99.99,,2013-04-16 09:01:00,
2013-04-16 05:11:00,43.0,41.0,30.42,ESE,110,4.0,4.0,93,-99.99,,,-99.99,,2013-04-16 09:11:00,
2013-04-16 05:21:00,43.0,41.0,30.42,ESE,110,4.0,4.0,93,-99.99,,,-99.99,,2013-04-16 09:21:00,
2013-04-16 05:32:00,43.0,41.0,30.42,East,100,4.0,7.0,93,-99.99,,,-99.99,,2013-04-16 09:32:00,
2013-04-16 05:42:00,43.0,41.0,30.42,ESE,110,7.0,7.0,93,-99.99,,,-99.99,,2013-04-16 09:42:00,
2013-04-16 05:52:00,43.0,41.0,30.42,ESE,110,7.0,9.0,93,-99.99,,,-99.99,,2013-04-16 09:52:00,
2013-04-16 06:02:00,43.0,41.0,30.42,ESE,110,7.0,9.0,93,-99.99,,,-99.99,,2013-04-16 10:02:00,
2013-04-16 06:12:00,43.0,41.0,30.42,ESE,120,7.0,9.0,92,-99.99,,,-99.99,,2013-04-16 10:12:00,
2013-04-16 06:22:00,44.0,41.0,30.42,SE,130,9.0,11.0,91,-99.99,,,-99.99,,2013-04-16 10:22:00,
2013-04-16 06:32:00,44.0,41.0,30.42,SE,130,9.0,11.0,91,-99.99,,,-99.99,,2013-04-16 10:32:00,
2013-04-16 06:42:00,44.0,41.0,30.42,SE,130,7.0,9.0,91,-99.99,,,-99.99,,2013-04-16 10:42:00,
2013-04-16 06:52:00,44.0,41.0,30.42,SE,140,7.0,9.0,91,-99.99,,,-99.99,,2013-04-16 10:52:00,
2013-04-16 07:02:00,44.0,41.0,30.42,SE,140,7.0,9.0,89,-99.99,,,-99.99,,2013-04-16 11:02:00,
2013-04-16 07:12:00,44.0,41.0,30.42,SE,140,7.0,9.0,89,-99.99,,,-99.99,,2013-04-16 11:12:00,
2013-04-16 07:21:00,46.0,41.0,30.42,SE,140,7.0,9.0,84,-99.99,,,-99.99,,2013-04-16 11:21:00,
2013-04-16 07:31:00,46.0,41.0,30.42,SE,140,7.0,9.0,84,-99.99,,,-99.99,,2013-04-16 11:31:00,
2013-04-16 07:41:00,46.0,41.0,30.42,SE,140,7.0,9.0,81,-99.99,,,-99.99,,2013-04-16 11:41:00,
2013-04-16 07:52:00,46.0,41.0,30.42,SE,140,9.0,11.0,81,-99.99,,,-99.99,,2013-04-16 11:52:00,
2013-04-16 08:01:00,47.0,41.0,30.42,SE,140,9.0,9.0,79,-99.99,,,-99.99,,2013-04-16 12:01:00,
2013-04-16 08:11:00,47.0,41.0,30.42,SE,140,9.0,9.0,79,-99.99,,,-99.99,,2013-04-16 12:11:00,
2013-04-16 08:21:00,48.0,42.0,30.43,SE,140,7.0,9.0,79,-99.99,,,-99.99,,2013-04-16 12:21:00,
2013-04-16 08:31:00,48.0,42.0,30.43,SE,140,7.0,9.0,79,-99.99,,,-99.99,,2013-04-16 12:31:00,
2013-04-16 08:41:00,47.0,42.0,30.43,SSE,150,9.0,9.0,82,-99.99,,,-99.99,,2013-04-16 12:41:00,
2013-04-16 08:51:00,48.0,42.0,30.43,SSE,150,9.0,11.0,80,-99.99,,,-99.99,,2013-04-16 12:51:00,
2013-04-16 09:11:00,49.0,42.0,30.42,SSE,150,9.0,11.0,77,-99.99,,,-99.99,,2013-04-16 13:11:00,
2013-04-16 09:22:00,49.0,42.0,30.42,SSE,160,9.0,11.0,77,-99.99,,,-99.99,,2013-04-16 13:22:00,
2013-04-16 09:31:00,49.0,42.0,30.42,SSE,160,9.0,11.0,77,-99.99,,,-99.99,,2013-04-16 13:31:00,
2013-04-16 09:42:00,48.0,42.0,30.42,SSE,160,9.0,13.0,79,-99.99,,,-99.99,,2013-04-16 13:42:00,
2013-04-16 09:52:00,47.0,42.0,30.42,SSE,160,9.0,13.0,81,-99.99,,,-99.99,,2013-04-16 13:52:00,
2013-04-16 10:02:00,48.0,42.0,30.42,South,170,9.0,13.0,81,-99.99,,,-99.99,,2013-04-16 14:02:00,
2013-04-16 10:11:00,48.0,42.0,30.42,South,170,9.0,13.0,81,-99.99,,,-99.99,,2013-04-16 14:11:00,
2013-04-16 10:22:00,47.0,42.0,30.42,SSE,160,7.0,11.0,83,-99.99,,,-99.99,,2013-04-16 14:22:00,
2013-04-16 10:32:00,47.0,42.0,30.42,SSE,160,7.0,11.0,83,-99.99,,,-99.99,,2013-04-16 14:32:00,
2013-04-16 10:41:00,47.0,43.0,30.42,SSE,160,7.0,13.0,84,-99.99,,,-99.99,,2013-04-16 14:41:00,
2013-04-16 10:51:00,47.0,43.0,30.42,SSE,160,9.0,16.0,83,-99.99,,,-99.99,,2013-04-16 14:51:00,
2013-04-16 11:01:00,47.0,43.0,30.42,SSE,160,9.0,16.0,83,-99.99,,,-99.99,,2013-04-16 15:01:00,
2013-04-16 11:11:00,48.0,43.0,30.42,SSE,160,9.0,13.0,82,-99.99,,,-99.99,,2013-04-16 15:11:00,
2013-04-16 11:21:00,47.0,43.0,30.42,South,170,11.0,16.0,83,-99.99,,,-99.99,,2013-04-16 15:21:00,
2013-04-16 11:32:00,47.0,43.0,30.42,SSE,160,9.0,13.0,84,-99.99,,,-99.99,,2013-04-16 15:32:00,
2013-04-16 11:43:00,47.0,43.0,30.42,SSE,160,9.0,13.0,84,-99.99,,,-99.99,,2013-04-16 15:43:00,
2013-04-16 11:52:00,47.0,43.0,30.42,SSE,160,7.0,11.0,86,-99.99,,,-99.99,,2013-04-16 15:52:00,
2013-04-16 12:03:00,47.0,43.0,30.41,SE,140,7.0,9.0,87,-99.99,,,-99.99,,2013-04-16 16:03:00,
2013-04-16 12:12:00,47.0,43.0,30.41,SE,140,7.0,9.0,87,-99.99,,,-99.99,,2013-04-16 16:12:00,
2013-04-16 12:22:00,47.0,43.0,30.40,SE,140,9.0,11.0,87,-99.99,,,-99.99,,2013-04-16 16:22:00,
2013-04-16 12:32:00,47.0,43.0,30.39,SSE,160,11.0,16.0,86,-99.99,,,-99.99,,2013-04-16 16:32:00,
2013-04-16 12:41:00,47.0,43.0,30.39,SSE,160,11.0,16.0,86,-99.99,,,-99.99,,2013-04-16 16:41:00,
2013-04-16 12:52:00,47.0,43.0,30.38,SSE,160,13.0,16.0,84,-99.99,,,-99.99,,2013-04-16 16:52:00,
2013-04-16 13:02:00,47.0,43.0,30.38,SSE,160,11.0,16.0,84,-99.99,,,-99.99,,2013-04-16 17:02:00,
2013-04-16 13:11:00,47.0,43.0,30.38,SSE,160,11.0,16.0,84,-99.99,,,-99.99,,2013-04-16 17:11:00,
2013-04-16 13:22:00,47.0,43.0,30.37,SSE,160,9.0,13.0,84,-99.99,,,-99.99,,2013-04-16 17:22:00,
2013-04-16 13:32:00,47.0,43.0,30.37,SSE,150,9.0,11.0,86,-99.99,,,-99.99,,2013-04-16 17:32:00,
2013-04-16 13:43:00,47.0,43.0,30.37,SSE,150,9.0,11.0,86,-99.99,,,-99.99,,2013-04-16 17:43:00,
2013-04-16 13:52:00,47.0,44.0,30.35,SE,140,7.0,11.0,86,-99.99,,,-99.99,,2013-04-16 17:52:00,
2013-04-16 14:01:00,47.0,44.0,30.35,SE,140,7.0,11.0,86,-99.99,,,-99.99,,2013-04-16 18:01:00,
2013-04-16 14:21:00,48.0,44.0,30.35,South,170,7.0,9.0,84,-99.99,,,-99.99,,2013-04-16 18:21:00,
2013-04-16 14:31:00,48.0,44.0,30.35,South,170,7.0,9.0,84,-99.99,,,-99.99,,2013-04-16 18:31:00,
2013-04-16 14:41:00,49.0,44.0,30.35,South,170,7.0,9.0,82,-99.99,,,-99.99,,2013-04-16 18:41:00,
2013-04-16 14:52:00,49.0,44.0,30.35,South,180,7.0,9.0,82,-99.99,,,-99.99,,2013-04-16 18:52:00,
2013-04-16 15:01:00,49.0,44.0,30.35,South,170,7.0,11.0,80,-99.99,,,-99.99,,2013-04-16 19:01:00,
2013-04-16 15:11:00,49.0,44.0,30.35,South,170,7.0,11.0,80,-99.99,,,-99.99,,2013-04-16 19:11:00,
2013-04-16 15:21:00,50.0,44.0,30.34,South,170,11.0,13.0,79,-99.99,,,-99.99,,2013-04-16 19:21:00,
2013-04-16 15:41:00,50.0,44.0,30.34,South,170,7.0,11.0,80,-99.99,,,-99.99,,2013-04-16 19:41:00,
2013-04-16 15:52:00,50.0,44.0,30.33,South,170,9.0,13.0,79,-99.99,,,-99.99,,2013-04-16 19:52:00,
2013-04-16 16:01:00,51.0,44.0,30.33,South,180,11.0,16.0,77,-99.99,,,-99.99,,2013-04-16 20:01:00,
2013-04-16 16:11:00,51.0,44.0,30.33,South,180,11.0,16.0,77,-99.99,,,-99.99,,2013-04-16 20:11:00,
2013-04-16 16:21:00,50.0,44.0,30.33,South,170,9.0,13.0,79,-99.99,,,-99.99,,2013-04-16 20:21:00,
2013-04-16 16:31:00,50.0,44.0,30.33,South,170,9.0,13.0,79,-99.99,,,-99.99,,2013-04-16 20:31:00,
2013-04-16 16:41:00,49.0,44.0,30.32,South,170,7.0,9.0,82,-99.99,,,-99.99,,2013-04-16 20:41:00,
2013-04-16 16:51:00,50.0,45.0,30.31,South,170,9.0,11.0,83,-99.99,,,-99.99,,2013-04-16 20:51:00,
2013-04-16 17:01:00,52.0,45.0,30.29,South,180,9.0,13.0,77,-99.99,,,-99.99,,2013-04-16 21:01:00,
2013-04-16 17:11:00,52.0,45.0,30.29,South,180,9.0,13.0,77,-99.99,,,-99.99,,2013-04-16 21:11:00,
2013-04-16 17:21:00,51.0,45.0,30.29,South,170,13.0,16.0,80,-99.99,,,-99.99,,2013-04-16 21:21:00,
2013-04-16 17:32:00,49.0,45.0,30.28,South,170,11.0,16.0,84,-99.99,,,-99.99,,2013-04-16 21:32:00,
2013-04-16 17:42:00,49.0,45.0,30.28,South,170,11.0,16.0,84,-99.99,,,-99.99,,2013-04-16 21:42:00,
2013-04-16 17:52:00,48.0,45.0,30.28,South,180,11.0,13.0,88,-99.99,,,-99.99,,2013-04-16 21:52:00,
2013-04-16 18:02:00,48.0,45.0,30.28,South,190,9.0,13.0,88,-99.99,,,-99.99,,2013-04-16 22:02:00,
2013-04-16 18:12:00,48.0,45.0,30.28,South,190,9.0,13.0,88,-99.99,,,-99.99,,2013-04-16 22:12:00,
2013-04-16 18:22:00,48.0,45.0,30.27,South,180,9.0,11.0,90,-99.99,,,-99.99,,2013-04-16 22:22:00,
2013-04-16 18:32:00,48.0,45.0,30.26,South,190,9.0,13.0,90,-99.99,,,-99.99,,2013-04-16 22:32:00,
2013-04-16 18:42:00,48.0,45.0,30.26,South,190,9.0,13.0,90,-99.99,,,-99.99,,2013-04-16 22:42:00,
2013-04-16 18:52:00,48.0,46.0,30.24,South,190,9.0,13.0,91,-99.99,,,-99.99,,2013-04-16 22:52:00,
2013-04-16 19:02:00,49.0,46.0,30.23,South,190,13.0,18.0,89,-99.99,,,-99.99,,2013-04-16 23:02:00,
2013-04-16 19:11:00,49.0,46.0,30.23,South,190,13.0,18.0,89,-99.99,,,-99.99,,2013-04-16 23:11:00,
2013-04-16 19:21:00,49.0,46.0,30.22,South,180,18.0,22.0,89,-99.99,,,-99.99,,2013-04-16 23:21:00,
2013-04-16 19:31:00,49.0,46.0,30.21,South,180,18.0,22.0,90,-99.99,,,-99.99,,2013-04-16 23:31:00,
2013-04-16 19:42:00,49.0,46.0,30.21,South,180,18.0,22.0,90,-99.99,,,-99.99,,2013-04-16 23:42:00,
2013-04-16 19:51:00,49.0,47.0,30.21,South,180,18.0,20.0,91,-99.99,,,-99.99,,2013-04-16 23:51:00,
2013-04-16 20:01:00,49.0,46.0,30.21,South,190,16.0,20.0,91,-99.99,,,-99.99,,2013-04-17 00:01:00,
2013-04-16 20:11:00,49.0,46.0,30.21,South,190,16.0,20.0,91,-99.99,,,-99.99,,2013-04-17 00:11:00,
2013-04-16 20:21:00,49.0,46.0,30.20,South,190,18.0,22.0,90,-99.99,,,-99.99,,2013-04-17 00:21:00,
2013-04-16 20:32:00,49.0,46.0,30.20,South,190,18.0,22.0,90,-99.99,,,-99.99,,2013-04-17 00:32:00,
2013-04-16 20:42:00,49.0,46.0,30.20,South,190,18.0,22.0,90,-99.99,,,-99.99,,2013-04-17 00:42:00,
2013-04-16 20:52:00,50.0,47.0,30.19,South,190,20.0,25.0,88,-99.99,,,-99.99,,2013-04-17 00:52:00,
2013-04-16 21:01:00,50.0,47.0,30.19,South,190,20.0,27.0,87,-99.99,,,-99.99,,2013-04-17 01:01:00,
2013-04-16 21:11:00,50.0,47.0,30.19,South,190,20.0,27.0,87,-99.99,,,-99.99,,2013-04-17 01:11:00,
2013-04-16 21:21:00,50.0,47.0,30.21,SSW,200,18.0,25.0,87,-99.99,,,-99.99,,2013-04-17 01:21:00,
2013-04-16 21:32:00,50.0,47.0,30.21,SSW,200,18.0,25.0,87,-99.99,,,-99.99,,2013-04-17 01:32:00,
2013-04-16 21:41:00,49.0,46.0,30.22,SSW,210,16.0,20.0,89,-99.99,,,-99.99,,2013-04-17 01:41:00,
2013-04-16 21:52:00,49.0,46.0,30.22,SSW,210,13.0,18.0,89,-99.99,,,-99.99,,2013-04-17 01:52:00,
2013-04-16 22:01:00,48.0,46.0,30.22,SW,220,11.0,16.0,92,-99.99,,,-99.99,,2013-04-17 02:01:00,
2013-04-16 22:11:00,48.0,46.0,30.22,SW,220,11.0,16.0,92,-99.99,,,-99.99,,2013-04-17 02:11:00,
2013-04-16 22:21:00,49.0,46.0,30.22,SW,220,13.0,18.0,89,-99.99,,,-99.99,,2013-04-17 02:21:00,
2013-04-16 22:42:00,50.0,47.0,30.23,SW,230,16.0,18.0,89,-99.99,,,-99.99,,2013-04-17 02:42:00,
2013-04-16 22:52:00,50.0,46.0,30.23,SW,230,13.0,20.0,87,-99.99,,,-99.99,,2013-04-17 02:52:00,
2013-04-16 23:02:00,49.0,46.0,30.21,WSW,250,9.0,13.0,89,-99.99,,,-99.99,,2013-04-17 03:02:00,
2013-04-16 23:12:00,49.0,46.0,30.21,WSW,250,9.0,13.0,89,-99.99,,,-99.99,,2013-04-17 03:12:00,
2013-04-16 23:21:00,49.0,46.0,30.19,SW,230,9.0,13.0,89,-99.99,,,-99.99,,2013-04-17 03:21:00,
2013-04-16 23:32:00,49.0,46.0,30.19,SW,230,9.0,13.0,89,-99.99,,,-99.99,,2013-04-17 03:32:00,
2013-04-16 23:42:00,49.0,46.0,30.19,SW,230,9.0,13.0,89,-99.99,,,-99.99,,2013-04-17 03:42:00,
2013-04-16 23:53:00,49.0,46.0,30.19,SW,220,11.0,16.0,89,-99.99,,,-99.99,,2013-04-17 03:53:00,